Location: Unspecified
(44.0704°N, 88.6889°W)
Time: 22:25:47
(UTC+02:00)

Transit 2A - Pass Details

Date: 19 June 2019
Orbit: 597 x 962 km, 66.7° (Epoch: 21 August)

Event Time Altitude Azimuth Distance (km) Brightness Sun altitude
Rises 16:08:18 0° 333° (NNW) 3,511 9.2 39.5°
Reaches altitude 10° 16:11:25 10° 347° (NNW) 2,510 8.6 40.1°
Maximum altitude 16:16:01 24° 40° (NE) 1,636 8.4 40.9°
Drops below altitude 10° 16:20:17 10° 93° (E) 2,301 9.6 41.6°
Sets 16:22:59 0° 108° (ESE) 3,155 10.0 42.1°
